Regional Weather Roundup
Issued by NWS Wakefield, VA

Home | Current Version | Previous Version | Text Only | Print | Product List | Glossary Off
Versions: 1 2 3 4 5 6 7 8 9 10 11 12 13 14 15 16 17 18 19 20 21 22 23 24 25 26 27 28 29 30 31 32 33 34 35 36 37 38 39 40 41 42 43 44 45 46 47 48 49 50

647
ASUS41 KAKQ 202115
RWRAKQ

REGIONAL WEATHER ROUNDUP
NATIONAL WEATHER SERVICE WAKEFIELD VA
500 PM EDT SUN AUG 20 2017

Note: "fair" indicates few or no clouds below 12,000 feet with no
significant weather and/or obstructions to visibility. * = Denotes
station may not report precipitation (e.g., rain,snow,etc.),
thunder or fog.

VAZ042-051-052>054-056-202200-
NORTHERN VIRGINIA

CITY           SKY/WX    TMP DP  RH WIND       PRES   REMARKS
WASH NATIONAL  MOSUNNY   87  63  44 N10       30.11S
DULLES         SUNNY     85  65  51 VRB3      30.11F
FORT BELVOIR   SUNNY     87  63  44 NW6       30.10S
QUANTICO       SUNNY     86  68  54 CALM      30.11S
FREDERICKSBRG* SUNNY     87  69  55 E8        30.09F
STAFFORD*      SUNNY     85  69  58 E6        30.14F
WARRENTON      MOSUNNY   86  64  46 CALM      30.11S
CULPEPER*      SUNNY     87  69  54 CALM      30.11S
MANASSAS*      SUNNY     85  67  54 SW5       30.11F
LEESBURG*      SUNNY     86  68  54 NW3       30.13S
WINCHESTER     SUNNY     81  63  54 E5        30.12F
FRONT ROYAL*   CLEAR     82  68  61 NE3       30.11S
LURAY*         PTCLDY    88  63  42 CALM      30.11S
$$

VAZ048-049-060>072-079>083-202200-
CENTRAL AND SOUTH CENTRAL VIRGINIA

CITY           SKY/WX    TMP DP  RH WIND       PRES   REMARKS
RICHMOND       MOSUNNY   88  69  53 NE5       30.09F
CHESTERFIELD*  FAIR      88  67  49 SE6       30.10F
PETERSBURG*    SUNNY     88  65  46 E5        30.10S
HANOVER        SUNNY     87  67  51 CALM      30.11F
TAPPAHANNOCK*  SUNNY     87  56  34 CALM      30.11S
QUINTON*       FAIR     N/A N/A N/A CALM      30.09F
CHARLOTTSVILLE MOSUNNY   88  67  49 E8        30.10F
GORDONSVILLE*  CLEAR     86  69  56 NE6       30.10S
ORANGE*        SUNNY     86  66  51 CALM      30.11S
LOUISA*        SUNNY     84  66  54 CALM      30.11S
BUMPASS*       FAIR      86  69  57 W5        30.11S
FARMVILLE*     SUNNY     93  48  21 CALM      30.09S
CREWE*         FAIR      88  61  39 CALM      30.10S
FORT PICKETT*  FAIR     N/A N/A N/A NE5       30.10S
CHASE CITY*    FAIR      89  69  50 E3        30.10S
CLARKSVILLE*   FAIR      88  70  55 CALM      30.09S
SOUTH HILL*    SUNNY     88  74  64 N3        30.15S HX  97
LAWRENCEVILLE* FAIR      88  73  61 NE5       30.09S HX  95
EMPORIA*       SUNNY     86  72  62 CALM      30.10S
$$

VAZ088>098-202200-
SOUTHEAST VIRGINIA

CITY           SKY/WX    TMP DP  RH WIND       PRES   REMARKS
NORFOLK        SUNNY     85  71  63 NE8       30.10S
VIRGINIA BEACH MOSUNNY   82  70  66 E12       30.10S
NORFOLK NAVAL  MOSUNNY   84  70  62 E9        30.12S
WEST POINT*    MOSUNNY   87  67  51 E6        30.11S
SALUDA*        FAIR      83  69  62 E6        30.11S
NEWPORT NEWS   SUNNY     84  69  60 E9        30.10S
LANGLEY AFB    SUNNY     84  71  66 NE10      30.10S
FORT EUSTIS    SUNNY     92  67  43 E6        30.08S HX  96
WILLIAMSBURG*  SUNNY     90  72  55 CALM      30.11R HX  96
HR EXEC AP*    FAIR      88  73  62 E8          N/A  HX  96
FRANKLIN*      MOSUNNY   87  74  63 NE6       30.08S HX  95
US460-WAKEFLD  SUNNY     88  74  63 NE7       30.09S HX  96
$$

VAZ020-022-025-037-045-202200-
WEST CENTRAL AND SOUTHWEST VIRGINIA

CITY           SKY/WX    TMP DP  RH WIND       PRES   REMARKS
STAUNTON*      PTSUNNY   83  67  58 SE5       30.14S
WAYNESBORO*    CLOUDY    84  67  58 E8        30.14S
HOT SPRINGS VA MOSUNNY   77  54  44 SW6       30.28S
LYNCHBURG      PTSUNNY   90  60  36 S7        30.11F
DANVILLE       MOSUNNY   91  68  46 VRB3      30.10S HX  95
SOUTH BOSTON*  FAIR      90  66  44 CALM      30.09S
MARTINSVILLE   SUNNY     88  67  49 CALM      30.14S
ROANOKE        MOSUNNY   90  62  39 SE10      30.13F
BLACKSBURG     PTSUNNY   86  65  50 E7        30.20S
DUBLIN*        SUNNY     88  58  36 CALM      30.18S
MARION*        SUNNY     82  35  18 S3        30.22S
HILLSVILLE*    CLOUDY    78  62  58 CALM      30.21R
RICHLANDS*     FAIR      82  55  38 SW6       30.21S
WISE*          PTSUNNY   81  63  54 CALM      30.21F
ABINGDON*      SUNNY     87  63  43 CALM      30.17R
$$

MDZ021>025-VAZ099-100-202200-
SOUTHERN MARYLAND AND THE DELMARVA PENINSULA

CITY           SKY/WX    TMP DP  RH WIND       PRES   REMARKS
PATUXENT RIVER MOSUNNY   82  68  62 E5        30.10S
BAY BRIDGE APT SUNNY     82  63  51 NW3       30.11R
LEONARDTOWN    SUNNY     81  68  65 CALM      30.12S
DOVER          SUNNY     82  57  42 W9        30.10S
GEORGETOWN     SUNNY     85  58  39 NW6       30.11R
EASTON         NOT AVBL
CAMBRIDGE      SUNNY     82  61  47 N7        30.11S
SALISBURY      SUNNY     86  62  44 NW8       30.10S
OCEAN CITY     SUNNY     79  69  71 SE5       30.11S
WALLOPS ISLAND SUNNY     82  71  69 SE8       30.11S
ACCOMACK*      SUNNY     84  67  57 NW5       30.11S
$$

NCZ012>017-030>032-202200-
NORTH CENTRAL AND EASTERN NORTH CAROLINA

CITY           SKY/WX    TMP DP  RH WIND       PRES   REMARKS
ROANOKE RAPIDS FAIR      90  72  55 E3        30.08S HX  96
RALEIGH        MOSUNNY   93  66  40 E8        30.08F HX  96
ELIZABETH CITY CLOUDY    87  73  62 E9        30.10R
AHOSKIE*         N/A     87  71  57 CALM      30.09R
EDENTON*       CLOUDY    88  75  64 E9        30.09F HX  98
CURRITUCK*     CLOUDY    84  73  69 E7        30.11R
KILL DEVIL HLS CLOUDY    82  75  79 CALM      30.09S
MANTEO         CLOUDY    83  76  79 N8        30.11R
CAPE HATTERAS  MOSUNNY   85  78  80 SE10      30.09S HX  96
TARBORO*       NOT AVBL
GOLDSBORO      MOSUNNY   92  72  50 NE7       30.07S HX 100
WASHINGTON     CLOUDY    89  73  57 E3        30.08S HX  97
GREENVILLE     MOSUNNY   91  70  49 E7        30.09S HX  97
NEW BERN       SUNNY     88  74  63 SE9       30.09S HX  96
WILMINGTON     CLOUDY    84  77  79 SE10      30.08S
$$

VAZ048-202200-
ELSEWHERE

CITY           SKY/WX    TMP DP  RH WIND       PRES   REMARKS
HARRISBURG PA  MOSUNNY   83  67  58 SW3       30.10F
BALTIMORE      SUNNY     84  60  44 W6        30.10S
ANNAPOLIS      SUNNY     83  68  60 SE6       30.10S
ANDREWS AFB    SUNNY     85  60  43 W9        30.10S
PHILADELPHIA   MOSUNNY   85  58  39 VRB6      30.09S
HENDERSON NC   MOSUNNY   85  68  56 CALM      30.09S
GREENSBORO     MOSUNNY   92  64  39 E7        30.10S
ROCKY MOUNT    SUNNY     91  71  51 VRB3      30.08S HX  97
$$

VAZ100-202200-
MARINE

STATION/POSITION TIME  TEMP    WIND        PRES    WAVE   SWELL
                       AIR SEA DIR/SP/G            HT/PER HT/PER
                 (UTC) (F)     (DEG/KT/KT) (MB)    (FT/S) (FT/S)
BRANDYWINE LGT   2042   79     350/  4/  6 1019.6R
CAPE MAY NJ      2042   81 80  320/  8/ 10 1018.7R
LEWES DE         2042   79 79   20/  1/  4 1019.0S
15NM E FENWICK I 2050   78 79  350/  6/  8 1019.5F   2/ 8   2/ 8
OCEAN-CITY-INLET 2042   78 80  120/  4/  5 1019.7F
WACHAPREAGUE VA  2042   82 87  120/  5/  7 1019.5S
THOMAS POINT MD  2100   81 81  120/  3/  3   N/A
GOOSES REEF MD   2100   81 81  100/  4/  4 1020.2    0
COVE POINT MD    2042   79      30/  5/  6 1020.2S
SOLOMONS ISLAND  2042   82 82   80/  3/  5   N/A
BISHOPS HEAD MD  2042   82 84  320/  5/  8 1019.7S
PINEY POINT MD   2036          150/  4/  4   N/A
POTOMAC MD       2100   81 84  100/  4/  6 1018.9    0
CAMBRIDGE MD     2042   85 83              1020.5R
LEWISETTA VA     2042   81 84  120/  4/  5 1019.4F
RAPPAHANNOCK LGT 2036          360/  9/ 10 1020.2S
STINGRAY PT      2100   82 83   80/  8/ 10 1019.9    1/ 2
YORK RVR RNG VA  2042   81      70/ 11/ 12 1019.8F
YORKTOWN VA      2042   83 84   90/  9/ 10 1019.0F
JAMESTOWN VA     2100      87  100/  6/ 10   N/A     0
DOMINION TERM VA 2042   84      90/  4/ 10 1019.5R
KIPTOPEKE VA     2036      83  130/  7/ 12   N/A
CHES BAY BRIDGE  2036   79 81  100/ 10/ 11 1019.5S
CAPE HENRY VA    2036   79      80/  9/ 11   N/A
WILLOUBY STN VA  2036   80     100/ 10/ 11 1019.5F
S CRANEY ISL VA  2036   82      60/  7/ 11 1019.2R
CAPE HENRY BUOY  2100      81                N/A     2/ 9
1ST LANDING BUOY 2100   80 82              1019.4    1/ 3
64NM E OF VA BCH 2050   79 81   40/  6/  8 1020.1R   2/ 8   2/ 8
DUCK PIER NC     2036   82 79   70/  7/  8 1019.0S
44100 DUCK FRF   2005      82                N/A     2/ 8
44056 DUCK FRF   2100      80                N/A     2/ 8
OREGON INLET NC  2036   81 83   40/  8/ 11 1019.1S
HATTERAS NC      2036   82 80  120/  6/  7 1019.2R
DIAMOND SHLS NC  2050   82 85   30/  6/  6 1019.0R   2/ 9   2/ 9
CAPE LOOKOUT NC  2100   82     110/  5/  6 1018.5S
$$




USA.gov is the U.S. government's official web portal to all federal, state and local government web resources and services.